AUA21KC EDDF-LOWW

Flight info

Callsign AUA21KC
Flight time 0h 57m
Altitude 31000
Route SULUS7S/18 SULUS Z650 VEMUT/N0471F290 DCT BUDEX BUDEX2W
Aircraft A320/M-SDE3FGHIRWY/LB1

Departure

Time 2026-05-06 14:40
Airport Frankfurt Main Airport (EDDF)

Arrival

Time 2026-05-06 15:38
Airport Vienna International Airport (LOWW)
Time Latitude Longitude Altitude Speed Heading
2026-05-06 14:10 50.04606 8.56776 356 ft 0 kts 295°
2026-05-06 14:27 50.04597 8.56809 363 ft 4 kts 292°
2026-05-06 14:27 50.04588 8.56841 362 ft 3 kts 295°
2026-05-06 14:28 50.04582 8.56878 362 ft 4 kts 251°
2026-05-06 14:28 50.04597 8.56905 365 ft 4 kts 202°
2026-05-06 14:28 50.04613 8.56914 365 ft 0 kts 193°
2026-05-06 14:28 50.04592 8.56906 365 ft 4 kts 193°
2026-05-06 14:29 50.04566 8.56896 363 ft 4 kts 193°
2026-05-06 14:29 50.04539 8.56887 359 ft 4 kts 193°
2026-05-06 14:29 50.04529 8.56883 359 ft 0 kts 193°
2026-05-06 14:34 50.04528 8.56882 359 ft 2 kts 193°
2026-05-06 14:34 50.04470 8.56853 363 ft 13 kts 212°
2026-05-06 14:34 50.04420 8.56697 359 ft 20 kts 249°
2026-05-06 14:35 50.04366 8.56470 361 ft 25 kts 250°
2026-05-06 14:35 50.04300 8.56192 358 ft 29 kts 249°
2026-05-06 14:35 50.04229 8.55898 354 ft 28 kts 250°
2026-05-06 14:35 50.04162 8.55615 356 ft 28 kts 250°
2026-05-06 14:36 50.04096 8.55340 360 ft 26 kts 249°
2026-05-06 14:36 50.04035 8.55086 359 ft 25 kts 249°
2026-05-06 14:36 50.03975 8.54834 356 ft 27 kts 250°
2026-05-06 14:36 50.03908 8.54552 357 ft 28 kts 249°
2026-05-06 14:37 50.03825 8.54284 347 ft 28 kts 235°
2026-05-06 14:37 50.03750 8.54014 348 ft 27 kts 250°
2026-05-06 14:37 50.03685 8.53742 345 ft 27 kts 249°
2026-05-06 14:37 50.03618 8.53476 337 ft 26 kts 249°
2026-05-06 14:38 50.03554 8.53207 338 ft 27 kts 250°
2026-05-06 14:38 50.03492 8.52949 337 ft 25 kts 249°
2026-05-06 14:38 50.03432 8.52726 332 ft 16 kts 249°
2026-05-06 14:38 50.03389 8.52598 333 ft 9 kts 210°
2026-05-06 14:39 50.03343 8.52595 335 ft 5 kts 180°
2026-05-06 14:39 50.03220 8.52594 335 ft 47 kts 180°
2026-05-06 14:39 50.02658 8.52600 334 ft 112 kts 179°
2026-05-06 14:39 50.01698 8.52610 334 ft 162 kts 180°
2026-05-06 14:40 50.00497 8.52636 725 ft 176 kts 181°
2026-05-06 14:40 49.99269 8.52641 1453 ft 176 kts 182°
2026-05-06 14:40 49.98003 8.52647 1921 ft 192 kts 181°
2026-05-06 14:40 49.96661 8.53292 2209 ft 219 kts 146°
2026-05-06 14:41 49.95685 8.55210 2624 ft 237 kts 121°
2026-05-06 14:41 49.94889 8.57425 3367 ft 239 kts 122°
2026-05-06 14:41 49.94160 8.59783 3875 ft 247 kts 108°
2026-05-06 14:41 49.93945 8.62532 3995 ft 270 kts 95°
2026-05-06 14:42 49.93845 8.65515 4385 ft 283 kts 95°
2026-05-06 14:42 49.93464 8.68471 5448 ft 279 kts 115°
2026-05-06 14:42 49.92402 8.70959 6445 ft 276 kts 139°
2026-05-06 14:42 49.90884 8.72769 7389 ft 277 kts 148°
2026-05-06 14:43 49.89320 8.74543 8287 ft 281 kts 142°
2026-05-06 14:43 49.87986 8.76805 9110 ft 288 kts 127°
2026-05-06 14:43 49.86965 8.79514 9906 ft 293 kts 121°
2026-05-06 14:43 49.85944 8.82353 10272 ft 313 kts 122°
2026-05-06 14:44 49.84841 8.85398 10485 ft 336 kts 121°
2026-05-06 14:44 49.83655 8.88661 10641 ft 359 kts 121°
2026-05-06 14:44 49.82395 8.92128 10762 ft 380 kts 121°
2026-05-06 14:45 49.79729 8.99460 11715 ft 397 kts 121°
2026-05-06 14:45 49.78370 9.03192 12347 ft 401 kts 121°
2026-05-06 14:45 49.77005 9.06981 12972 ft 405 kts 119°
2026-05-06 14:45 49.75931 9.11025 13628 ft 410 kts 109°
2026-05-06 14:46 49.75225 9.15259 14202 ft 413 kts 105°
2026-05-06 14:46 49.74541 9.19592 14756 ft 416 kts 105°
2026-05-06 14:46 49.73836 9.24005 15322 ft 419 kts 105°
2026-05-06 14:46 49.73137 9.28335 15877 ft 422 kts 105°
2026-05-06 14:47 49.72408 9.32801 16399 ft 425 kts 106°
2026-05-06 14:47 49.71679 9.37247 16900 ft 428 kts 106°
2026-05-06 14:47 49.70946 9.41711 17397 ft 430 kts 106°
2026-05-06 14:47 49.70207 9.46208 17880 ft 433 kts 106°
2026-05-06 14:48 49.69464 9.50730 18312 ft 436 kts 106°
2026-05-06 14:48 49.68726 9.55223 18704 ft 438 kts 106°
2026-05-06 14:48 49.67978 9.59798 19095 ft 441 kts 105°
2026-05-06 14:48 49.67520 9.64495 19477 ft 446 kts 96°
2026-05-06 14:49 49.67555 9.69304 19858 ft 450 kts 86°
2026-05-06 14:49 49.68106 9.74078 20234 ft 455 kts 77°
2026-05-06 14:49 49.68955 9.78791 20581 ft 457 kts 76°
2026-05-06 14:49 49.69802 9.83532 20931 ft 459 kts 76°
2026-05-06 14:50 49.70644 9.88294 21262 ft 461 kts 76°
2026-05-06 14:50 49.71660 9.93008 21585 ft 464 kts 69°
2026-05-06 14:50 49.73114 9.97475 21877 ft 468 kts 60°
2026-05-06 14:50 49.74961 10.01644 22174 ft 471 kts 55°
2026-05-06 14:51 49.76880 10.05774 22472 ft 473 kts 56°
2026-05-06 14:51 49.78776 10.09862 22799 ft 474 kts 56°
2026-05-06 14:51 49.80697 10.14024 23092 ft 476 kts 56°
2026-05-06 14:51 49.82621 10.18202 23367 ft 478 kts 56°
2026-05-06 14:52 49.84549 10.22400 23598 ft 479 kts 56°
2026-05-06 14:52 49.86484 10.26617 23814 ft 481 kts 56°
2026-05-06 14:52 49.88425 10.30851 24019 ft 482 kts 56°
2026-05-06 14:52 49.90372 10.35098 24211 ft 484 kts 56°
2026-05-06 14:53 49.92325 10.39367 24415 ft 486 kts 56°
2026-05-06 14:53 49.94277 10.43646 24649 ft 486 kts 56°
2026-05-06 14:53 49.96227 10.47934 24927 ft 485 kts 56°
2026-05-06 14:53 49.98171 10.52214 25209 ft 485 kts 56°
2026-05-06 14:54 50.00115 10.56505 25424 ft 486 kts 57°
2026-05-06 14:54 50.02057 10.60817 25648 ft 487 kts 58°
2026-05-06 14:54 50.03686 10.65413 25912 ft 484 kts 69°
2026-05-06 14:54 50.04778 10.70342 26201 ft 480 kts 79°
2026-05-06 14:55 50.05324 10.75443 26490 ft 476 kts 89°
2026-05-06 14:55 50.05329 10.80561 26769 ft 471 kts 98°
2026-05-06 14:55 50.04795 10.85563 27068 ft 466 kts 108°
2026-05-06 14:55 50.03837 10.90360 27372 ft 464 kts 112°
2026-05-06 14:56 50.02831 10.95116 27688 ft 463 kts 112°
2026-05-06 14:56 50.01837 10.99803 28013 ft 462 kts 112°
2026-05-06 14:56 50.00827 11.04548 28278 ft 463 kts 112°
2026-05-06 14:56 49.99812 11.09311 28537 ft 464 kts 112°
2026-05-06 14:57 49.98793 11.14074 28846 ft 464 kts 113°
2026-05-06 14:57 49.97774 11.18826 29158 ft 464 kts 113°
2026-05-06 14:57 49.96770 11.23588 29480 ft 465 kts 110°
2026-05-06 14:57 49.96089 11.28519 29802 ft 468 kts 105°
2026-05-06 14:58 49.95475 11.33472 30079 ft 467 kts 105°
2026-05-06 14:58 49.94864 11.38426 30334 ft 468 kts 105°
2026-05-06 14:58 49.94255 11.43389 30562 ft 468 kts 105°
2026-05-06 14:58 49.93647 11.48365 30736 ft 471 kts 106°
2026-05-06 14:59 49.93028 11.53382 30780 ft 476 kts 106°
2026-05-06 14:59 49.91755 11.63564 30775 ft 482 kts 106°
2026-05-06 15:00 49.90466 11.73794 30770 ft 483 kts 106°
2026-05-06 15:00 49.89167 11.84017 30769 ft 483 kts 106°
2026-05-06 15:01 49.87862 11.94255 30763 ft 485 kts 107°
2026-05-06 15:01 49.86549 12.04504 30758 ft 485 kts 107°
2026-05-06 15:02 49.85226 12.14680 30753 ft 485 kts 107°
2026-05-06 15:02 49.83884 12.24912 30751 ft 484 kts 107°
2026-05-06 15:03 49.82539 12.35143 30718 ft 484 kts 107°
2026-05-06 15:03 49.80838 12.45156 30731 ft 476 kts 118°
2026-05-06 15:04 49.77628 12.53904 30733 ft 464 kts 131°
2026-05-06 15:04 49.73943 12.62115 30733 ft 465 kts 131°
2026-05-06 15:05 49.70293 12.70292 30724 ft 466 kts 131°
2026-05-06 15:05 49.66588 12.78558 30755 ft 470 kts 131°
2026-05-06 15:06 49.62851 12.86854 30758 ft 471 kts 131°
2026-05-06 15:06 49.59110 12.95137 30752 ft 471 kts 131°
2026-05-06 15:07 49.55367 13.03414 30751 ft 470 kts 131°
2026-05-06 15:07 49.51613 13.11661 30753 ft 470 kts 131°
2026-05-06 15:08 49.47858 13.19894 30760 ft 470 kts 131°
2026-05-06 15:08 49.44097 13.28121 30749 ft 470 kts 131°
2026-05-06 15:09 49.40328 13.36339 30745 ft 471 kts 132°
2026-05-06 15:09 49.36545 13.44549 30740 ft 471 kts 132°
2026-05-06 15:10 49.32750 13.52776 30743 ft 474 kts 132°
2026-05-06 15:10 49.28960 13.60985 30746 ft 475 kts 132°
2026-05-06 15:11 49.25133 13.69230 30749 ft 475 kts 132°
2026-05-06 15:11 49.21297 13.77461 30748 ft 475 kts 132°
2026-05-06 15:12 49.17464 13.85667 30719 ft 474 kts 132°
2026-05-06 15:12 49.13626 13.93854 30727 ft 474 kts 133°
2026-05-06 15:13 49.09782 14.02018 30728 ft 473 kts 133°
2026-05-06 15:13 49.05938 14.10169 30731 ft 473 kts 133°
2026-05-06 15:14 49.02092 14.18319 30733 ft 474 kts 133°
2026-05-06 15:14 48.98235 14.26456 30710 ft 473 kts 133°
2026-05-06 15:15 48.94360 14.34564 30522 ft 473 kts 133°
2026-05-06 15:15 48.92428 14.38519 29397 ft 474 kts 134°
2026-05-06 15:15 48.90418 14.42516 28092 ft 477 kts 134°
2026-05-06 15:15 48.88408 14.46460 27573 ft 465 kts 134°
2026-05-06 15:16 48.86444 14.50306 26869 ft 458 kts 134°
2026-05-06 15:16 48.84502 14.54104 26188 ft 452 kts 134°
2026-05-06 15:16 48.82591 14.57849 25494 ft 446 kts 134°
2026-05-06 15:16 48.80706 14.61554 24868 ft 441 kts 134°
2026-05-06 15:17 48.78837 14.65226 24219 ft 437 kts 134°
2026-05-06 15:17 48.76985 14.68862 23570 ft 434 kts 134°
2026-05-06 15:17 48.75151 14.72464 22886 ft 430 kts 133°
2026-05-06 15:17 48.73333 14.76028 22271 ft 425 kts 134°
2026-05-06 15:18 48.71535 14.79548 21703 ft 419 kts 134°
2026-05-06 15:18 48.69761 14.83019 21149 ft 415 kts 134°
2026-05-06 15:18 48.68002 14.86453 20617 ft 410 kts 134°
2026-05-06 15:18 48.66261 14.89841 20111 ft 406 kts 134°
2026-05-06 15:19 48.64538 14.93190 19583 ft 402 kts 134°
2026-05-06 15:19 48.62824 14.96515 19120 ft 398 kts 134°
2026-05-06 15:19 48.61126 14.99802 18635 ft 395 kts 134°
2026-05-06 15:19 48.59580 15.03177 18148 ft 399 kts 124°
2026-05-06 15:20 48.58438 15.07020 17605 ft 404 kts 113°
2026-05-06 15:20 48.57701 15.11112 17090 ft 403 kts 109°
2026-05-06 15:20 48.57009 15.15192 16561 ft 400 kts 109°
2026-05-06 15:20 48.56312 15.19247 16020 ft 398 kts 109°
2026-05-06 15:21 48.55613 15.23277 15486 ft 396 kts 109°
2026-05-06 15:21 48.54916 15.27286 14932 ft 394 kts 108°
2026-05-06 15:21 48.54222 15.31278 14389 ft 392 kts 108°
2026-05-06 15:21 48.53528 15.35250 13830 ft 391 kts 108°
2026-05-06 15:22 48.53070 15.37869 13454 ft 389 kts 108°
2026-05-06 15:22 48.52382 15.41806 12849 ft 387 kts 108°
2026-05-06 15:22 48.51905 15.45789 12294 ft 386 kts 97°
2026-05-06 15:22 48.51686 15.49803 11746 ft 382 kts 97°
2026-05-06 15:23 48.51466 15.53778 11186 ft 379 kts 97°
2026-05-06 15:23 48.51242 15.57717 10627 ft 375 kts 97°
2026-05-06 15:23 48.51018 15.61594 10356 ft 364 kts 97°
2026-05-06 15:23 48.50805 15.65314 10227 ft 349 kts 97°
2026-05-06 15:24 48.50602 15.68883 10104 ft 335 kts 98°
2026-05-06 15:24 48.50406 15.72319 9984 ft 323 kts 98°
2026-05-06 15:24 48.50214 15.75627 9846 ft 312 kts 98°
2026-05-06 15:24 48.50026 15.78844 9736 ft 305 kts 98°
2026-05-06 15:25 48.49838 15.82017 9470 ft 303 kts 98°
2026-05-06 15:25 48.49648 15.85175 9069 ft 302 kts 98°
2026-05-06 15:25 48.49457 15.88321 8669 ft 301 kts 98°
2026-05-06 15:25 48.49266 15.91451 8306 ft 299 kts 99°
2026-05-06 15:26 48.48823 15.94449 8036 ft 288 kts 112°
2026-05-06 15:26 48.48196 15.97315 7667 ft 287 kts 112°
2026-05-06 15:26 48.47572 16.00156 7314 ft 284 kts 112°
2026-05-06 15:26 48.46951 16.02973 7002 ft 282 kts 112°
2026-05-06 15:27 48.46332 16.05776 6959 ft 282 kts 112°
2026-05-06 15:27 48.45720 16.08549 6964 ft 283 kts 112°
2026-05-06 15:27 48.45100 16.11354 6962 ft 282 kts 112°
2026-05-06 15:27 48.44478 16.14155 6961 ft 279 kts 112°
2026-05-06 15:28 48.43885 16.16843 6951 ft 262 kts 113°
2026-05-06 15:28 48.43323 16.19390 6962 ft 254 kts 114°
2026-05-06 15:28 48.42765 16.21893 6839 ft 251 kts 114°
2026-05-06 15:28 48.42209 16.24371 6489 ft 249 kts 113°
2026-05-06 15:29 48.41656 16.26839 6142 ft 248 kts 114°
2026-05-06 15:29 48.41105 16.29294 5827 ft 246 kts 114°
2026-05-06 15:29 48.40557 16.31721 5513 ft 243 kts 114°
2026-05-06 15:29 48.40014 16.34123 5160 ft 241 kts 114°
2026-05-06 15:30 48.39480 16.36493 4985 ft 238 kts 114°
2026-05-06 15:30 48.38949 16.38848 4982 ft 238 kts 115°
2026-05-06 15:30 48.38419 16.41200 4987 ft 238 kts 114°
2026-05-06 15:30 48.37728 16.43414 4993 ft 230 kts 128°
2026-05-06 15:31 48.36886 16.45325 4988 ft 215 kts 130°
2026-05-06 15:31 48.35963 16.47055 4985 ft 201 kts 144°
2026-05-06 15:31 48.34851 16.48069 4984 ft 182 kts 165°
2026-05-06 15:32 48.32463 16.49107 4678 ft 177 kts 167°
2026-05-06 15:32 48.31278 16.49612 4459 ft 176 kts 167°
2026-05-06 15:32 48.30113 16.50110 4269 ft 170 kts 167°
2026-05-06 15:32 48.28994 16.50587 4022 ft 164 kts 167°
2026-05-06 15:33 48.27913 16.51048 3778 ft 158 kts 168°
2026-05-06 15:33 48.26867 16.51494 3567 ft 154 kts 169°
2026-05-06 15:33 48.25847 16.51928 3367 ft 151 kts 169°
2026-05-06 15:33 48.24851 16.52352 3173 ft 147 kts 169°
2026-05-06 15:34 48.23874 16.52768 2993 ft 145 kts 168°
2026-05-06 15:34 48.22911 16.53177 2800 ft 143 kts 168°
2026-05-06 15:34 48.21953 16.53584 2611 ft 144 kts 168°
2026-05-06 15:34 48.20990 16.53993 2425 ft 144 kts 168°
2026-05-06 15:35 48.20034 16.54399 2229 ft 140 kts 168°
2026-05-06 15:35 48.19139 16.54781 2073 ft 129 kts 168°
2026-05-06 15:35 48.18297 16.55138 1899 ft 124 kts 168°
2026-05-06 15:35 48.17476 16.55486 1730 ft 122 kts 168°
2026-05-06 15:36 48.16664 16.55830 1576 ft 121 kts 168°
2026-05-06 15:36 48.15856 16.56172 1414 ft 122 kts 169°
2026-05-06 15:36 48.15031 16.56520 1230 ft 122 kts 169°
2026-05-06 15:36 48.14212 16.56866 1074 ft 121 kts 166°
2026-05-06 15:37 48.13424 16.57209 957 ft 118 kts 165°
2026-05-06 15:37 48.12639 16.57539 767 ft 116 kts 165°
2026-05-06 15:37 48.11853 16.57872 630 ft 118 kts 166°
2026-05-06 15:37 48.11153 16.58165 623 ft 82 kts 164°
2026-05-06 15:38 48.10791 16.58295 616 ft 35 kts 179°
2026-05-06 15:38 48.10615 16.58247 609 ft 19 kts 194°
2026-05-06 15:38 48.10558 16.58160 612 ft 13 kts 294°
2026-05-06 15:38 48.10637 16.58107 610 ft 13 kts 344°
2026-05-06 15:39 48.10741 16.58061 620 ft 23 kts 343°
2026-05-06 15:39 48.10901 16.57994 623 ft 23 kts 344°
2026-05-06 15:39 48.11050 16.57931 616 ft 22 kts 344°
2026-05-06 15:39 48.11192 16.57871 621 ft 20 kts 344°
2026-05-06 15:40 48.11330 16.57813 621 ft 20 kts 344°
2026-05-06 15:40 48.11460 16.57758 614 ft 22 kts 344°
2026-05-06 15:40 48.11606 16.57696 624 ft 21 kts 344°
2026-05-06 15:40 48.11707 16.57622 612 ft 14 kts 292°
2026-05-06 15:41 48.11733 16.57504 617 ft 14 kts 330°
2026-05-06 15:41 48.11811 16.57424 613 ft 13 kts 271°
2026-05-06 15:41 48.11834 16.57279 619 ft 16 kts 294°
2026-05-06 15:41 48.11857 16.57139 610 ft 12 kts 280°
2026-05-06 15:42 48.11891 16.57033 621 ft 11 kts 296°
2026-05-06 15:42 48.11892 16.56967 610 ft 5 kts 219°
2026-05-06 15:42 48.11855 16.56939 610 ft 5 kts 206°
2026-05-06 15:42 48.11845 16.56931 617 ft 0 kts 206°